Regional Weather Roundup
Issued by NWS

Home | Current Version | Previous Version | Text Only | Print | Product List | Glossary Off
Versions: 1 2 3 4 5 6 7 8 9 10 11 12 13 14 15 16 17 18 19 20 21 22 23 24 25 26 27 28 29 30 31 32 33 34 35 36 37 38 39 40 41 42 43 44 45 46 47 48 49 50

000
ASUS43 KLOT 230803
RWRIL

ILLINOIS REGIONAL WEATHER ROUNDUP
NATIONAL WEATHER SERVICE CHICAGO/ROMEOVILLE IL
200 AM CST THU FEB 23 2017

NOTE: "FAIR" INDICATES FEW OR NO CLOUDS BELOW 12,000 FEET WITH NO
SIGNIFICANT WEATHER AND/OR OBSTRUCTIONS TO VISIBILITY.

* THESE STATIONS ARE NOT UNDER NWS QUALITY CONTROL. THEY ALSO MAY NOT
  REPORT WEATHER SUCH AS PRECIPITATION OR FOG.

ILZ001-002-007-009-015-016-024-230900-
NORTHWEST ILLINOIS

CITY           SKY/WX    TMP DP  RH WIND       PRES   REMARKS
MOLINE         CLEAR    N/A N/A N/A NW8       29.73R
STERLING*      CLEAR     46  42  86 W8        29.70R
SAVANNA*       CLEAR     49  44  84 NW9       29.71R
$$

ILZ003-004-008-010-011-017-018-230900-
NORTH CENTRAL ILLINOIS

CITY           SKY/WX    TMP DP  RH WIND       PRES   REMARKS
ROCKFORD       PTCLDY    50  43  77 W5        29.70R
FREEPORT*      CLEAR     46  42  85 W7        29.71R
ROCHELLE*      CLEAR     45  43  91 W6        29.69R
DE KALB*       CLEAR     51  45  81 W14G20    29.68R
PERU*          CLEAR     50  46  87 SW8       29.71R
$$

ILZ005-006-012>014-019>023-230900-
NORTHEAST ILLINOIS

CITY           SKY/WX    TMP DP  RH WIND       PRES   REMARKS
CHICAGO-OHARE  CLEAR     55  49  80 SW10      29.65R
CHICAGO-MIDWAY CLEAR     57  50  77 W12       29.67R
AURORA         CLEAR     51  47  86 SW9       29.68R
LANSING*       CLEAR     54  53  97 W10       29.68R
JOLIET*        CLEAR     56  52  86 W8        29.69R
WAUKEGAN       CLEAR     53  45  74 W7        29.63R
DUPAGE AIRPORT CLEAR     50  46  86 SW7       29.66R
KANKAKEE*      PTCLDY    47  47  98 CALM      29.69S FOG
WHEELING       CLEAR     53  48  83 W3        29.66R
MORRIS*        CLEAR     53  50  90 SW8       29.68S
ROMEOVILLE*    CLEAR     53  52  98 W10       29.68R
NORTHERLY ISL    N/A     57  50  77 SW8         N/A
$$

LMZ740>746-230900-
SOUTHERN LAKE MICHIGAN

STATION/POSITION SKY/WX   TEMP    WIND        PRES    VSBY  WAVE
                          AIR SEA DIR/SP/G                  HT/PER
                          (F)     (DEG/KT/KT) (MB)    (MI)  (FT/S)
HARRISON CRIB              58     250/ 18/ 23   N/A
BURNHAM HARBOR             56     230/  5/ 12   N/A
CALUMET HARBOR             57     220/  8/ 13 1004.1R
BURNS HARBOR               55     240/ 14/ 17 1005.1R
MICHIGAN CITY              54     220/ 20/ 23   N/A
$$

ILZ025>027-034>036-040-047-049-050-058-095>099-230900-
WEST-CENTRAL ILLINOIS

CITY           SKY/WX    TMP DP  RH WIND       PRES   REMARKS
QUINCY         FOG       50  50 100 NW8       29.72S VSB 1
GALESBURG*     CLEAR     46  43  90 NW5       29.72R
MACOMB*        CLEAR     45  44  99 W7        29.75R
JACKSONVILLE*  FOG       48  48  99 SE5       29.72F VSB 1/2
PITTSFIELD*    CLEAR     54  53  96 CALM      29.73S
$$

ILZ028>032-037-038-041>044-048-051>054-059>061-230900-
CENTRAL ILLINOIS

CITY           SKY/WX    TMP DP  RH WIND       PRES   REMARKS
PONTIAC        CLEAR     54  53  97 W10       29.71R
BLOOMINGTON    CLEAR     54  52  93 W9        29.72S FOG
DECATUR        CLOUDY    56  52  86 SW12      29.73R
PEORIA         FOG       46  46 100 CALM      29.72R VSB<1/4
LACON*         CLEAR     51  50  95 SW3       29.71S
LINCOLN*       FOG       49  49 100 CALM      29.72S VSB<1/4
SPRINGFIELD    CLEAR     48  48 100 S3        29.73R FOG
TAYLORVILLE    CLOUDY    54  52  94 SW7       29.73S
$$

ILZ033-039-045-046-055>057-062-063-230900-
EAST-CENTRAL ILLINOIS

CITY           SKY/WX    TMP DP  RH WIND       PRES   REMARKS
CHAMPAIGN      CLEAR     54  51  90 W6        29.73R
RANTOUL*       CLEAR     55  53  94 SW9       29.72S
MATTOON        MOCLDY    57  55  93 S9        29.73S
PARIS*         PTCLDY    56  54  92 SW12      29.74S
$$

ILZ079-100>102-230900-
SOUTHWEST ILLINOIS

CITY           SKY/WX    TMP DP  RH WIND       PRES   REMARKS
ALTON          CLEAR     51  51  97 S3        29.74R
BELLEVILLE     PTCLDY    54  54 100 CALM      29.73S
CAHOKIA*       CLEAR     56  51  84 S3        29.73S
SPARTA*        PTCLDY    56  54  90 S6        29.76S
$$

ILZ064>066-069>071-074>076-080>082-084>086-088>090-092>094-230900-
SOUTH-CENTRAL ILLINOIS

CITY           SKY/WX    TMP DP  RH WIND       PRES   REMARKS
CARBONDALE     CLOUDY    58  56  93 S5        29.76S
CAIRO*         PTCLDY    57  56  95 SW3       29.79R
EFFINGHAM*     CLOUDY    56  56  97 S5        29.76S
MARION         PTCLDY    59  57  94 SW6       29.77S
CENTRALIA*     CLOUDY    56  55  97 S5        29.75S
SALEM*         CLOUDY    58  55  87 S5        29.75F
METROPOLIS*    CLOUDY    58  56  90 CALM      29.80S
$$

ILZ067-068-072-073-078-083-087-091-230900-
SOUTHEAST ILLINOIS

CITY           SKY/WX    TMP DP  RH WIND       PRES   REMARKS
LAWRENCEVILLE  MOCLDY    51  51 100 SE6       29.78S FOG
FLORA*         MOCLDY    56  55  93 S7        29.76F
FAIRFIELD*     MOCLDY    57  56  95 CALM      29.76S
HARRISBURG*    CLOUDY    57  55  93 SW5       29.78S
ROBINSON*      MOCLDY    55  53  94 S7        29.77F
CARMI*         CLOUDY    57  55  92 S7        29.77F
$$

ABBREVIATIONS USED IN REMARKS
   TC - TEMPERATURE IN CELSIUS
  WCI - WIND CHILL INDEX
   HX - HEAT INDEX
  VSB - VISIBILITY
$$





USA.gov is the U.S. government's official web portal to all federal, state and local government web resources and services.